map of MXJ home
MXJ - Airport
Location
City:  Minna, Niger, Nigeria
Name:Minna Airport
ICAO:DNMN
IATA:MXJ

Details
Type:Airport (Aerodrome, Airfield)
Use:Public/Civil
Latitude:939'08"N (9.652172)
Longitude:627'44"E (6.462256)
Datum:WGS 1984
Elevation:834 ft (254 m)
Variation:0.79W (WMM2015 magnetic declination)
0.10 annual change
Runways:1
Longest:11153 × 145 ft (3399 × 44 m), paved

Time
Time Zone:UTC+1
Local Time:

Weather
METAR:DNMN 181300Z 25008KT CAVOK 35/15 Q1007
TAF:DNMN 181530Z 1818/1924 32010KT 8000 NSC
BECMG 1819/1821 05004KT

Related Locations
Nearby:
Farthest:AAU: 12159 mi / 19568 km
Asau, WS

Find:

   beyond  
but within

Other Information
Maps:
NOTAMs:
Links:
Sources:

  
  • flag of Nigeria
  

Sectional Chart

Flight Planning
at skyvector.com

Satellite Image

Google Maps Satellite view

 

Copyright © 2004-2018 Karl L. Swartz. All rights reserved.
The Great Circle Mapper name and logo are trademarks of the Great Circle Mapper.
All other trademarks mentioned herein belong to their respective owners.
Please see credits for attibutions and further copyright information.

  Follow gcmap on Facebook Follow gcmap on Twitter Follow gcmap on Google+ GCmap on LinkedIn

hCard Microformat

Geo Microformat